Tracking 20369 objects as of 17-Feb-2020
HD Live streaming from Space Station
objects crossing your sky now

COSMOS 2222

Track COSMOS 2222 now!
COSMOS 2222 is classified as:


NORAD ID: 22238
Int'l Code: 1992-081A
Perigee: 966.7 km
Apogee: 39,386.9 km
Inclination: 63.6 °
Period: 717.5 minutes
Semi major axis: 26547 km
RCS: 13.6381 m2 (large)
Launch date: November 25, 1992
Source: Commonwealth of Independent States (former USSR) (CIS)
Launch site: PLESETSK MISSILE AND SPACE COMPLEX (PKMTR)
aabbcc
Your satellite tracking list
Your tracking list is empty




NASA's NSSDC Master Catalog

Two Line Element Set (TLE):
1 22238U 92081A   20046.80010064 +.00001085 +00000-0 -11292-1 0  9999
2 22238 063.5533 059.1389 7236048 200.3718 100.9000 02.00705922199466
Source of the keplerian elements: AFSPC